Kiana, AK

2:27 AM AKST on February 22, 2017 (GMT -0900)
Baker Memorial

Weather History for PAIK - April, 2013

Change the Weather History Date:

Sunday, April 28, 2013

  Actual Average (PASK) Record (PASK)
Temperature  
Mean Temperature 21 °F -  
Max Temperature 19 °F 27 °F 46 °F (2014)
Min Temperature 12 °F 14 °F 1 °F (2001)
Degree Days  
Heating Degree Days 44    
Moisture  
Dew Point 18 °F    
Average Humidity 81    
Maximum Humidity 93    
Minimum Humidity 66    
Precipitation  
Precipitation 0.00 in - - ()
Sea Level Pressure  
Sea Level Pressure 30.41 in    
Wind  
Wind Speed 7 mph (WSW)    
Max Wind Speed 22 mph    
Max Gust Speed 28 mph    
Visibility 10 miles    
Events      
Averages and records for this station are not official NWS values.
T = Trace of Precipitation, MM = Missing Value Source: NWS Daily Summary

Daily Weather History Graph

Daily Weather History Graph

Search for Another Location

Airport or City:

Trip Planner

Search our weather history database for the weather conditions in past years. The results will help you decide how hot, cold, wet, or windy it might be!

Date:

Astronomy

Apr. 28, 2013 Rise Set
Actual Time 6:00 AM AKDT 11:20 PM AKDT
Civil Twilight 4:34 AM AKDT 12:49 AM AKDT
Nautical Twilight Sun does not rise Sun does not rise
Astronomical Twilight Sun does not rise Sun does not rise
Moon 3:11 AM AKDT (4/28) 7:15 AM AKDT (4/28)
Length of Visible Light 20h 14m
Length of Day
17h 20m
Waning Gibbous, 87% of the Moon is Illuminated
Apr 28
Waning Gibbous
May 2
Last Quarter
May 9
New
May 17
First Quarter
May 24
Full

Hourly Weather History & Observations

Time (AKDT) Temp. Windchill Dew Point Humidity Pressure Visibility Wind Dir Wind Speed Gust Speed Precip Events Conditions
12:01 AM 26.1 °F 21.9 °F 18.0 °F 71% 30.44 in 10.0 mi NNW 3.5 mph - N/A   Clear
1:01 AM 23.0 °F - 17.1 °F 78% 30.45 in 10.0 mi Calm Calm - N/A   Clear
2:01 AM 19.9 °F - 16.0 °F 85% 30.46 in 10.0 mi Calm Calm - N/A   Mostly Cloudy
3:01 AM 16.0 °F 10.4 °F 12.9 °F 88% 30.46 in 10.0 mi SSE 3.5 mph - N/A   Clear
4:01 AM 15.1 °F - 12.9 °F 91% 30.47 in 10.0 mi Calm Calm - N/A   Partly Cloudy
5:01 AM 12.9 °F 3.8 °F 10.9 °F 92% 30.47 in 10.0 mi WNW 5.8 mph - N/A   Partly Cloudy
6:01 AM 14.0 °F 8.2 °F 10.9 °F 88% 30.47 in 10.0 mi WNW 3.5 mph - N/A   Overcast
7:01 AM 15.1 °F - 12.0 °F 88% 30.47 in 10.0 mi Calm Calm - N/A   Overcast
8:01 AM 19.9 °F - 15.1 °F 81% 30.47 in 10.0 mi Calm Calm - N/A   Overcast
9:01 AM 19.0 °F 12.3 °F 12.9 °F 77% 30.47 in 10.0 mi SSW 4.6 mph - N/A   Overcast
10:01 AM 21.0 °F - 14.0 °F 74% 30.46 in 10.0 mi Calm Calm - N/A   Overcast
11:01 AM 23.0 °F 17.0 °F 14.0 °F 68% 30.46 in 10.0 mi South 4.6 mph - N/A   Overcast
12:01 PM 25.0 °F 17.1 °F 17.1 °F 72% 30.46 in 10.0 mi WSW 6.9 mph - N/A   Overcast
1:01 PM 27.0 °F 16.7 °F 19.0 °F 72% 30.45 in 10.0 mi SW 11.5 mph 16.1 mph 0.00 in   Overcast
2:01 PM 30.0 °F 21.7 °F 19.9 °F 66% 30.45 in 10.0 mi WSW 9.2 mph - N/A   Overcast
3:01 PM 28.9 °F 18.2 °F 19.9 °F 69% 30.43 in 10.0 mi WSW 13.8 mph - N/A   Overcast
4:01 PM 30.0 °F 18.3 °F 21.9 °F 72% 30.42 in 10.0 mi WSW 17.3 mph 21.9 mph N/A   Clear
5:01 PM 27.0 °F 14.3 °F 21.9 °F 81% 30.42 in 10.0 mi West 17.3 mph 26.5 mph N/A   Clear
5:31 PM 26.6 °F 13.4 °F 21.2 °F 80% 30.29 in 10.0 mi WSW 18.4 mph 25.3 mph N/A   Scattered Clouds
5:43 PM 26.6 °F 12.4 °F 21.2 °F 80% 30.28 in 10.0 mi WSW 21.9 mph 27.6 mph N/A   Mostly Cloudy
6:01 PM 26.1 °F 13.1 °F 21.9 °F 84% 30.42 in 10.0 mi WSW 17.3 mph 24.2 mph N/A   Mostly Cloudy
7:01 PM 26.1 °F 12.7 °F 21.0 °F 81% 30.41 in 10.0 mi WSW 18.4 mph 24.2 mph N/A   Mostly Cloudy
7:13 PM 26.6 °F 13.4 °F 21.2 °F 80% 30.28 in 10.0 mi WSW 18.4 mph 24.2 mph N/A   Scattered Clouds
8:01 PM 24.1 °F 11.5 °F 19.9 °F 84% 30.41 in 10.0 mi WSW 15.0 mph 21.9 mph N/A   Partly Cloudy
9:01 PM 23.0 °F 10.6 °F 19.9 °F 88% 30.39 in 10.0 mi WSW 13.8 mph 19.6 mph N/A   Scattered Clouds
9:20 PM 21.2 °F 7.3 °F 19.4 °F 93% 30.26 in 10.0 mi West 16.1 mph 24.2 mph N/A   Mostly Cloudy
10:01 PM 21.9 °F 8.7 °F 19.0 °F 89% 30.39 in 10.0 mi WSW 15.0 mph 19.6 mph N/A   Mostly Cloudy
11:01 PM 21.2 °F 8.9 °F 19.4 °F 93% 30.25 in 10.0 mi WSW 12.7 mph 19.6 mph N/A   Overcast